Check out our new BloomSky Weather System.

Active alerts


No alerts


Thunder radar  blitzortung!


Rain radar more information rain snow radar


Visit our other weather sites:

Template documentation
and downloads

And another site



Weather Underground History page Text

Daily Summary for February 12, 2017 Units:  Metric    English   Both
« Previous Day
Next Day »
Daily Weekly Monthly Yearly Custom
  High: Low: Average:
Temperature: 30.7 °C 21.1 °C 24.5 °C
Dew Point: 21.7 °C 18 °C 20.1 °C
Humidity: 94 % 49 % 78 %
Wind Speed: 17.7 km/h 0 km/h 3.5 km/h
Wind Gust: 20.9 km/h - -
Wind:- - SSW
Pressure: 1021.2 hPa 1016.1 hPa -
Precipitation: 0 mm    
Historical Graphs
 
 
Tabular Data for February 12, 2017
Time Temperature Dew Point Pressure Wind Wind Speed Wind Gust Humidity Rainfall Rate (Hourly)
00:04 21.5 °C 20.3 °C 1016.5 hPa SE 6.4 km/h 16.1 km/h 93 % 0 mm
00:09 21.5 °C 20.3 °C 1016.5 hPa SSE 6.4 km/h 12.9 km/h 93 % 0 mm
00:14 21.5 °C 20.3 °C 1016.5 hPa South 4.8 km/h 12.9 km/h 93 % 0 mm
00:19 21.5 °C 20.3 °C 1016.5 hPa SSE 8 km/h 12.9 km/h 93 % 0 mm
00:24 21.5 °C 20.3 °C 1016.5 hPa South 6.4 km/h 12.9 km/h 93 % 0 mm
00:29 21.4 °C 20.2 °C 1016.5 hPa SSW 3.2 km/h 16.1 km/h 93 % 0 mm
00:34 21.4 °C 20.2 °C 1016.5 hPa SE 4.8 km/h 16.1 km/h 93 % 0 mm
00:39 21.3 °C 20.3 °C 1016.5 hPa SSE 6.4 km/h 16.1 km/h 94 % 0 mm
00:44 21.3 °C 20.3 °C 1016.5 hPa SE 4.8 km/h 9.7 km/h 94 % 0 mm
00:49 21.3 °C 20.3 °C 1016.5 hPa SSW 4.8 km/h 9.7 km/h 94 % 0 mm
00:54 21.3 °C 20.3 °C 1016.5 hPa SSE 6.4 km/h 9.7 km/h 94 % 0 mm
00:59 21.3 °C 20.3 °C 1016.5 hPa South 3.2 km/h 14.5 km/h 94 % 0 mm
01:04 21.3 °C 20.3 °C 1016.5 hPa SSE 8 km/h 14.5 km/h 94 % 0 mm
01:09 21.3 °C 20.3 °C 1016.5 hPa SSW 6.4 km/h 16.1 km/h 94 % 0 mm
01:14 21.4 °C 20.4 °C 1016.5 hPa East 4.8 km/h 16.1 km/h 94 % 0 mm
01:19 21.3 °C 20.3 °C 1016.5 hPa SE 6.4 km/h 16.1 km/h 94 % 0 mm
01:25 21.3 °C 20.3 °C 1016.5 hPa SSE 8 km/h 14.5 km/h 94 % 0 mm
01:30 21.3 °C 20.3 °C 1016.5 hPa SSE 6.4 km/h 14.5 km/h 94 % 0 mm
01:35 21.3 °C 20.3 °C 1016.5 hPa SSW 4.8 km/h 14.5 km/h 94 % 0 mm
01:40 21.3 °C 20.3 °C 1016.5 hPa SSE 3.2 km/h 12.9 km/h 94 % 0 mm
01:45 21.3 °C 20.3 °C 1016.5 hPa South 9.7 km/h 14.5 km/h 94 % 0 mm
01:50 21.3 °C 20.3 °C 1016.5 hPa SSE 3.2 km/h 14.5 km/h 94 % 0 mm
01:55 21.3 °C 20.3 °C 1016.5 hPa SSW 6.4 km/h 14.5 km/h 94 % 0 mm
02:00 21.3 °C 20.3 °C 1016.5 hPa SSE 11.3 km/h 14.5 km/h 94 % 0 mm
02:05 21.3 °C 20.3 °C 1016.5 hPa SE 3.2 km/h 14.5 km/h 94 % 0 mm
02:10 21.2 °C 20.2 °C 1016.5 hPa SW 4.8 km/h 14.5 km/h 94 % 0 mm
02:15 21.2 °C 20.2 °C 1016.5 hPa SSW 4.8 km/h 12.9 km/h 94 % 0 mm
02:20 21.3 °C 20.3 °C 1016.5 hPa South 1.6 km/h 8 km/h 94 % 0 mm
02:25 21.3 °C 20.3 °C 1016.5 hPa SSE 3.2 km/h 11.3 km/h 94 % 0 mm
02:30 21.3 °C 20.1 °C 1016.5 hPa SSE 6.4 km/h 11.3 km/h 93 % 0 mm
02:35 21.3 °C 20.1 °C 1016.5 hPa SSW 6.4 km/h 12.9 km/h 93 % 0 mm
02:40 21.4 °C 20.2 °C 1016.5 hPa SSE 4.8 km/h 12.9 km/h 93 % 0 mm
02:45 21.4 °C 20.2 °C 1016.5 hPa SSW 4.8 km/h 14.5 km/h 93 % 0 mm
02:50 21.4 °C 20.2 °C 1016.5 hPa SW 1.6 km/h 14.5 km/h 93 % 0 mm
02:55 21.5 °C 20.3 °C 1016.5 hPa SSW 4.8 km/h 14.5 km/h 93 % 0 mm
03:00 21.6 °C 20.4 °C 1016.5 hPa SSW 3.2 km/h 9.7 km/h 93 % 0 mm
03:05 21.6 °C 20.4 °C 1016.5 hPa SSW 3.2 km/h 14.5 km/h 93 % 0 mm
03:10 21.7 °C 20.3 °C 1016.5 hPa South 3.2 km/h 14.5 km/h 92 % 0 mm
03:15 21.7 °C 20.3 °C 1016.5 hPa SSE 6.4 km/h 14.5 km/h 92 % 0 mm
03:20 21.7 °C 20.3 °C 1016.5 hPa South 11.3 km/h 11.3 km/h 92 % 0 mm
03:25 21.7 °C 20.3 °C 1016.5 hPa SSE 3.2 km/h 12.9 km/h 92 % 0 mm
03:30 21.8 °C 20.4 °C 1016.5 hPa SSW 8 km/h 12.9 km/h 92 % 0 mm
03:35 21.8 °C 20.4 °C 1016.5 hPa South 4.8 km/h 12.9 km/h 92 % 0 mm
03:40 21.8 °C 20.4 °C 1016.5 hPa SSW 1.6 km/h 12.9 km/h 92 % 0 mm
03:45 21.8 °C 20.4 °C 1016.5 hPa South 3.2 km/h 12.9 km/h 92 % 0 mm
03:50 21.8 °C 20.4 °C 1016.5 hPa SSE 3.2 km/h 9.7 km/h 92 % 0 mm
03:55 21.8 °C 20.4 °C 1016.1 hPa SSW 4.8 km/h 9.7 km/h 92 % 0 mm
04:01 21.8 °C 20.4 °C 1016.5 hPa SSW 11.3 km/h 11.3 km/h 92 % 0 mm
04:05 21.8 °C 20.4 °C 1016.1 hPa SSW 3.2 km/h 12.9 km/h 92 % 0 mm
04:11 21.8 °C 20.4 °C 1016.1 hPa SSW 3.2 km/h 12.9 km/h 92 % 0 mm
04:16 21.7 °C 20.3 °C 1016.1 hPa South 4.8 km/h 12.9 km/h 92 % 0 mm
04:21 21.8 °C 20.6 °C 1016.1 hPa SSW 6.4 km/h 9.7 km/h 93 % 0 mm
04:26 21.8 °C 20.6 °C 1016.1 hPa SSW 6.4 km/h 9.7 km/h 93 % 0 mm
04:31 21.8 °C 20.6 °C 1016.1 hPa SSW 4.8 km/h 12.9 km/h 93 % 0 mm
04:36 21.8 °C 20.6 °C 1016.1 hPa South 1.6 km/h 12.9 km/h 93 % 0 mm
04:41 21.7 °C 20.5 °C 1016.1 hPa South 4.8 km/h 12.9 km/h 93 % 0 mm
04:46 21.7 °C 20.5 °C 1016.1 hPa SSW 8 km/h 12.9 km/h 93 % 0 mm
04:51 21.7 °C 20.5 °C 1016.1 hPa South 9.7 km/h 14.5 km/h 93 % 0 mm
04:56 21.7 °C 20.3 °C 1016.1 hPa SSE 9.7 km/h 17.7 km/h 92 % 0 mm
05:01 21.7 °C 20.3 °C 1016.1 hPa SSW 8 km/h 19.3 km/h 92 % 0 mm
05:06 21.7 °C 20.2 °C 1016.1 hPa South 8 km/h 19.3 km/h 91 % 0 mm
05:11 21.7 °C 20.2 °C 1016.5 hPa South 17.7 km/h 19.3 km/h 91 % 0 mm
05:16 21.7 °C 20 °C 1016.5 hPa SW 9.7 km/h 20.9 km/h 90 % 0 mm
05:21 21.7 °C 20 °C 1016.5 hPa SSW 11.3 km/h 20.9 km/h 90 % 0 mm
05:26 21.7 °C 20 °C 1016.5 hPa SSW 6.4 km/h 20.9 km/h 90 % 0 mm
05:31 21.7 °C 20 °C 1016.5 hPa South 11.3 km/h 16.1 km/h 90 % 0 mm
05:36 21.7 °C 20 °C 1016.5 hPa SSW 1.6 km/h 14.5 km/h 90 % 0 mm
05:41 21.7 °C 20 °C 1016.5 hPa SSE 8 km/h 11.3 km/h 90 % 0 mm
05:46 21.7 °C 20 °C 1016.5 hPa SSW 4.8 km/h 16.1 km/h 90 % 0 mm
05:51 21.7 °C 20 °C 1016.5 hPa SSW 6.4 km/h 16.1 km/h 90 % 0 mm
05:56 21.7 °C 20 °C 1016.5 hPa SSE 6.4 km/h 17.7 km/h 90 % 0 mm
06:01 21.7 °C 20 °C 1016.8 hPa South 8 km/h 17.7 km/h 90 % 0 mm
06:06 21.7 °C 20 °C 1016.8 hPa SSW 8 km/h 17.7 km/h 90 % 0 mm
06:11 21.7 °C 20 °C 1016.8 hPa SSW 6.4 km/h 11.3 km/h 90 % 0 mm
06:16 21.7 °C 20 °C 1016.8 hPa South 6.4 km/h 11.3 km/h 90 % 0 mm
06:21 21.7 °C 20 °C 1016.8 hPa Calm   11.3 km/h 90 % 0 mm
06:26 21.6 °C 19.9 °C 1017.2 hPa SSW 3.2 km/h 8 km/h 90 % 0 mm
06:31 21.6 °C 19.9 °C 1017.2 hPa Calm   8 km/h 90 % 0 mm
06:36 21.6 °C 19.9 °C 1017.2 hPa South 6.4 km/h 6.4 km/h 90 % 0 mm
06:41 21.6 °C 19.9 °C 1017.2 hPa SSE 3.2 km/h 6.4 km/h 90 % 0 mm
06:46 21.7 °C 20 °C 1017.2 hPa SSW 1.6 km/h 8 km/h 90 % 0 mm
06:51 21.6 °C 19.9 °C 1017.5 hPa SW 3.2 km/h 8 km/h 90 % 0 mm
06:56 21.6 °C 20.1 °C 1017.5 hPa South 1.6 km/h 8 km/h 91 % 0 mm
07:01 21.6 °C 20.1 °C 1017.5 hPa Calm   6.4 km/h 91 % 0 mm
07:06 21.6 °C 20.1 °C 1017.5 hPa SW 1.6 km/h 6.4 km/h 91 % 0 mm
07:11 21.5 °C 20 °C 1017.8 hPa Calm   3.2 km/h 91 % 0 mm
07:16 21.5 °C 20 °C 1017.8 hPa South 8 km/h 8 km/h 91 % 0 mm
07:21 21.5 °C 20 °C 1017.8 hPa Calm   8 km/h 91 % 0 mm
07:22 21.5 °C 20 °C 1017.8 hPa Calm   8 km/h 91 % 0 mm
07:27 21.6 °C 20.1 °C 1017.8 hPa Calm   8 km/h 91 % 0 mm
07:32 21.6 °C 20.1 °C 1018.2 hPa SSE 1.6 km/h 8 km/h 91 % 0 mm
07:37 21.6 °C 20.1 °C 1018.2 hPa SSW 1.6 km/h 6.4 km/h 91 % 0 mm
07:42 21.6 °C 20.1 °C 1018.2 hPa South 1.6 km/h 3.2 km/h 91 % 0 mm
07:47 21.7 °C 20.2 °C 1018.2 hPa Calm   3.2 km/h 91 % 0 mm
07:52 21.7 °C 20.2 °C 1018.2 hPa SSW 1.6 km/h 3.2 km/h 91 % 0 mm
07:57 21.7 °C 20.2 °C 1018.2 hPa South 1.6 km/h 3.2 km/h 91 % 0 mm
08:02 21.8 °C 20.3 °C 1018.2 hPa Calm   4.8 km/h 91 % 0 mm
08:07 21.9 °C 20.4 °C 1018.5 hPa SSW 3.2 km/h 4.8 km/h 91 % 0 mm
08:12 21.9 °C 20.4 °C 1018.5 hPa SSE 3.2 km/h 4.8 km/h 91 % 0 mm
08:17 22 °C 20.5 °C 1018.5 hPa SSE 1.6 km/h 6.4 km/h 91 % 0 mm
08:22 22.1 °C 20.6 °C 1018.8 hPa SSW 6.4 km/h 6.4 km/h 91 % 0 mm
08:27 22.2 °C 20.5 °C 1018.8 hPa SSW 4.8 km/h 8 km/h 90 % 0 mm
08:32 22.3 °C 20.6 °C 1018.8 hPa SSW 4.8 km/h 8 km/h 90 % 0 mm
08:37 22.4 °C 20.7 °C 1018.8 hPa SSW 9.7 km/h 11.3 km/h 90 % 0 mm
08:42 22.5 °C 20.6 °C 1019.2 hPa South 3.2 km/h 12.9 km/h 89 % 0 mm
08:47 22.6 °C 20.7 °C 1019.2 hPa SSW 6.4 km/h 12.9 km/h 89 % 0 mm
08:52 22.7 °C 20.8 °C 1019.2 hPa South 4.8 km/h 12.9 km/h 89 % 0 mm
08:57 22.8 °C 20.7 °C 1019.2 hPa West 4.8 km/h 11.3 km/h 88 % 0 mm
09:02 23 °C 21.1 °C 1019.2 hPa SW 1.6 km/h 11.3 km/h 89 % 0 mm
09:07 23.3 °C 21.2 °C 1019.2 hPa Calm   11.3 km/h 88 % 0 mm
09:12 23.6 °C 21.3 °C 1019.5 hPa SSW 4.8 km/h 11.3 km/h 87 % 0 mm
09:17 23.7 °C 21 °C 1019.5 hPa South 4.8 km/h 11.3 km/h 85 % 0 mm
09:22 23.8 °C 21.1 °C 1019.5 hPa South 4.8 km/h 11.3 km/h 85 % 0 mm
09:27 23.8 °C 20.9 °C 1019.9 hPa South 6.4 km/h 11.3 km/h 84 % 0 mm
09:32 23.9 °C 21 °C 1019.9 hPa SW 1.6 km/h 12.9 km/h 84 % 0 mm
09:37 24.1 °C 21.2 °C 1019.9 hPa SE 6.4 km/h 12.9 km/h 84 % 0 mm
09:42 24.6 °C 21.5 °C 1019.9 hPa WSW 4.8 km/h 14.5 km/h 83 % 0 mm
09:47 24.9 °C 21.4 °C 1019.9 hPa SW 3.2 km/h 14.5 km/h 81 % 0 mm
09:52 25.2 °C 21.5 °C 1019.9 hPa SSW 4.8 km/h 14.5 km/h 80 % 0 mm
09:57 25.1 °C 21 °C 1019.9 hPa SSW 3.2 km/h 14.5 km/h 78 % 0 mm
10:02 24.8 °C 20.9 °C 1020.2 hPa SW 1.6 km/h 11.3 km/h 79 % 0 mm
10:07 24.7 °C 21 °C 1020.5 hPa Calm   11.3 km/h 80 % 0 mm
10:13 24.8 °C 20.9 °C 1020.5 hPa West 1.6 km/h 11.3 km/h 79 % 0 mm
10:18 24.8 °C 20.9 °C 1020.9 hPa Calm   9.7 km/h 79 % 0 mm
10:23 25 °C 21.1 °C 1020.9 hPa SSW 8 km/h 9.7 km/h 79 % 0 mm
10:28 25.2 °C 20.9 °C 1020.9 hPa WNW 6.4 km/h 9.7 km/h 77 % 0 mm
10:33 25.6 °C 21.3 °C 1020.9 hPa WSW 4.8 km/h 9.7 km/h 77 % 0 mm
10:38 25.6 °C 20.8 °C 1021.2 hPa SE 1.6 km/h 9.7 km/h 75 % 0 mm
10:43 25.6 °C 21.1 °C 1020.9 hPa West 6.4 km/h 9.7 km/h 76 % 0 mm
10:48 26 °C 21.4 °C 1020.9 hPa SW 3.2 km/h 9.7 km/h 76 % 0 mm
10:53 26.4 °C 21.2 °C 1020.9 hPa SSW 1.6 km/h 9.7 km/h 73 % 0 mm
10:58 26.4 °C 21.4 °C 1020.9 hPa SSW 6.4 km/h 9.7 km/h 74 % 0 mm
11:03 26.4 °C 21.2 °C 1020.9 hPa SW 1.6 km/h 9.7 km/h 73 % 0 mm
11:08 26.3 °C 20.8 °C 1020.9 hPa West 1.6 km/h 9.7 km/h 72 % 0 mm
11:13 26.4 °C 21.4 °C 1020.5 hPa SSW 6.4 km/h 11.3 km/h 74 % 0 mm
11:18 26.2 °C 20.7 °C 1020.5 hPa SW 1.6 km/h 11.3 km/h 72 % 0 mm
11:23 26.3 °C 21.1 °C 1020.5 hPa SSW 4.8 km/h 11.3 km/h 73 % 0 mm
11:28 26.7 °C 21.5 °C 1020.5 hPa SSW 3.2 km/h 11.3 km/h 73 % 0 mm
11:33 27.1 °C 21.6 °C 1020.2 hPa WSW 4.8 km/h 9.7 km/h 72 % 0 mm
11:38 27.4 °C 21.4 °C 1020.5 hPa South 1.6 km/h 9.7 km/h 70 % 0 mm
11:43 27.6 °C 20.9 °C 1020.5 hPa SSE 4.8 km/h 9.7 km/h 67 % 0 mm
11:48 27.8 °C 20.9 °C 1020.2 hPa SSE 4.8 km/h 16.1 km/h 66 % 0 mm
11:53 27.8 °C 20.6 °C 1020.2 hPa SSE 4.8 km/h 16.1 km/h 65 % 0 mm
11:58 27.7 °C 20.5 °C 1020.2 hPa SSW 4.8 km/h 17.7 km/h 65 % 0 mm
12:03 28.1 °C 21.4 °C 1020.2 hPa WNW 3.2 km/h 17.7 km/h 67 % 0 mm
12:08 28.7 °C 21.7 °C 1019.9 hPa WSW 6.4 km/h 17.7 km/h 66 % 0 mm
12:13 29.2 °C 21.4 °C 1019.9 hPa SSE 4.8 km/h 16.1 km/h 63 % 0 mm
12:18 29.1 °C 21.3 °C 1019.9 hPa WNW 4.8 km/h 9.7 km/h 63 % 0 mm
12:23 29.1 °C 21.1 °C 1019.9 hPa ESE 4.8 km/h 9.7 km/h 62 % 0 mm
12:28 28.6 °C 21.4 °C 1019.9 hPa SSW 1.6 km/h 11.3 km/h 65 % 0 mm
12:33 28.8 °C 20.8 °C 1019.9 hPa SW 6.4 km/h 11.3 km/h 62 % 0 mm
12:38 28.7 °C 20.4 °C 1019.5 hPa WSW 8 km/h 12.9 km/h 61 % 0 mm
12:43 28.8 °C 20.5 °C 1019.5 hPa SSW 4.8 km/h 14.5 km/h 61 % 0 mm
12:48 28.9 °C 20.4 °C 1019.5 hPa Calm   14.5 km/h 60 % 0 mm
12:53 29.2 °C 20.6 °C 1019.5 hPa SE 4.8 km/h 14.5 km/h 60 % 0 mm
12:58 29.4 °C 20.3 °C 1019.5 hPa South 4.8 km/h 12.9 km/h 58 % 0 mm
13:03 29.4 °C 21.1 °C 1019.2 hPa SW 6.4 km/h 12.9 km/h 61 % 0 mm
13:08 29.2 °C 20.4 °C 1019.2 hPa WSW 1.6 km/h 14.5 km/h 59 % 0 mm
13:13 28.7 °C 20.4 °C 1019.2 hPa SSW 3.2 km/h 14.5 km/h 61 % 0 mm
13:18 28.8 °C 20.3 °C 1018.8 hPa WNW 1.6 km/h 14.5 km/h 60 % 0 mm
13:23 28.8 °C 20 °C 1019.2 hPa WSW 1.6 km/h 14.5 km/h 59 % 0 mm
13:28 28.9 °C 20.6 °C 1018.8 hPa SW 9.7 km/h 9.7 km/h 61 % 0 mm
13:33 28.6 °C 20.1 °C 1018.8 hPa SW 1.6 km/h 9.7 km/h 60 % 0 mm
13:38 28.4 °C 19.9 °C 1018.8 hPa West 4.8 km/h 9.7 km/h 60 % 0 mm
13:43 28.6 °C 19.8 °C 1018.8 hPa Calm   11.3 km/h 59 % 0 mm
13:48 28.9 °C 19.8 °C 1018.8 hPa West 3.2 km/h 11.3 km/h 58 % 0 mm
13:53 28.7 °C 19.9 °C 1018.8 hPa South 3.2 km/h 11.3 km/h 59 % 0 mm
13:58 28.8 °C 20.3 °C 1018.5 hPa SW 1.6 km/h 9.7 km/h 60 % 0 mm
14:03 29.2 °C 19.8 °C 1018.5 hPa SSW 8 km/h 9.7 km/h 57 % 0 mm
14:08 29.6 °C 19.9 °C 1018.5 hPa SW 8 km/h 12.9 km/h 56 % 0 mm
14:14 29.6 °C 19.3 °C 1018.5 hPa South 3.2 km/h 12.9 km/h 54 % 0 mm
14:19 29.6 °C 19.3 °C 1018.2 hPa West 3.2 km/h 12.9 km/h 54 % 0 mm
14:24 29.7 °C 20 °C 1018.2 hPa SW 9.7 km/h 16.1 km/h 56 % 0 mm
14:29 29.7 °C 19.7 °C 1018.2 hPa East 1.6 km/h 16.1 km/h 55 % 0 mm
14:34 30.1 °C 19.5 °C 1018.2 hPa WNW 4.8 km/h 16.1 km/h 53 % 0 mm
14:38 30.1 °C 19.5 °C 1018.2 hPa West 8 km/h 12.9 km/h 53 % 0 mm
14:43 29.9 °C 19.9 °C 1018.2 hPa SW 1.6 km/h 9.7 km/h 55 % 0 mm
14:49 30.3 °C 20 °C 1018.2 hPa South 1.6 km/h 8 km/h 54 % 0 mm
14:54 30.5 °C 19.5 °C 1018.2 hPa South 4.8 km/h 8 km/h 52 % 0 mm
14:59 30.6 °C 19.6 °C 1018.2 hPa SW 8 km/h 9.7 km/h 52 % 0 mm
15:04 30.2 °C 18.9 °C 1018.2 hPa West 3.2 km/h 9.7 km/h 51 % 0 mm
15:09 30.2 °C 19.3 °C 1018.2 hPa SW 1.6 km/h 9.7 km/h 52 % 0 mm
15:14 30.1 °C 19.8 °C 1017.8 hPa Calm   9.7 km/h 54 % 0 mm
15:19 30.2 °C 19.3 °C 1017.8 hPa SW 3.2 km/h 9.7 km/h 52 % 0 mm
15:24 30.3 °C 19 °C 1017.8 hPa SW 6.4 km/h 8 km/h 51 % 0 mm
15:29 30.3 °C 19.3 °C 1017.8 hPa Calm   8 km/h 52 % 0 mm
15:34 30.6 °C 19.3 °C 1017.8 hPa WSW 3.2 km/h 8 km/h 51 % 0 mm
15:39 30.7 °C 19.4 °C 1017.8 hPa Calm   8 km/h 51 % 0 mm
15:44 30.7 °C 18.8 °C 1017.8 hPa Calm   8 km/h 49 % 0 mm
15:49 30.6 °C 19 °C 1017.8 hPa SSE 1.6 km/h 6.4 km/h 50 % 0 mm
15:54 30.6 °C 18.7 °C 1017.8 hPa SSW 1.6 km/h 4.8 km/h 49 % 0 mm
15:59 30.1 °C 18.8 °C 1017.8 hPa Calm   8 km/h 51 % 0 mm
16:04 29.9 °C 18.7 °C 1017.8 hPa NW 1.6 km/h 8 km/h 51 % 0 mm
16:09 29.8 °C 18.6 °C 1017.8 hPa NW 1.6 km/h 8 km/h 51 % 0 mm
16:14 29.6 °C 18.7 °C 1017.8 hPa SW 3.2 km/h 4.8 km/h 52 % 0 mm
16:19 29.3 °C 18.7 °C 1017.8 hPa Calm   4.8 km/h 53 % 0 mm
16:24 29.2 °C 18.3 °C 1017.8 hPa Calm   4.8 km/h 52 % 0 mm
16:29 28.9 °C 18.1 °C 1017.8 hPa Calm   4.8 km/h 52 % 0 mm
16:34 28.8 °C 18.3 °C 1017.8 hPa NNW 1.6 km/h 4.8 km/h 53 % 0 mm
16:39 28.7 °C 18.2 °C 1017.8 hPa North 3.2 km/h 3.2 km/h 53 % 0 mm
16:44 28.7 °C 18.2 °C 1017.8 hPa Calm   3.2 km/h 53 % 0 mm
16:49 29.1 °C 18.8 °C 1017.8 hPa Calm   3.2 km/h 54 % 0 mm
16:54 29.4 °C 18.2 °C 1017.8 hPa Calm   3.2 km/h 51 % 0 mm
16:59 29.4 °C 18.2 °C 1017.8 hPa NNW 3.2 km/h 4.8 km/h 51 % 0 mm
17:04 29.2 °C 18.3 °C 1017.8 hPa Calm   6.4 km/h 52 % 0 mm
17:09 29.2 °C 18.3 °C 1017.8 hPa NW 3.2 km/h 6.4 km/h 52 % 0 mm
17:14 28.9 °C 18.1 °C 1018.2 hPa NW 1.6 km/h 6.4 km/h 52 % 0 mm
17:19 28.8 °C 18 °C 1018.2 hPa NNW 3.2 km/h 6.4 km/h 52 % 0 mm
17:24 28.8 °C 18.3 °C 1018.2 hPa NNW 1.6 km/h 6.4 km/h 53 % 0 mm
17:29 28.7 °C 18.2 °C 1018.2 hPa NNW 1.6 km/h 6.4 km/h 53 % 0 mm
17:34 28.6 °C 18.1 °C 1018.2 hPa NNW 1.6 km/h 4.8 km/h 53 % 0 mm
17:39 28.5 °C 18 °C 1018.2 hPa Calm   4.8 km/h 53 % 0 mm
17:44 28.4 °C 18.2 °C 1018.2 hPa NNW 1.6 km/h 4.8 km/h 54 % 0 mm
17:49 28.2 °C 18 °C 1018.2 hPa Calm   4.8 km/h 54 % 0 mm
17:54 28.1 °C 18.2 °C 1018.2 hPa Calm   3.2 km/h 55 % 0 mm
17:59 27.9 °C 18 °C 1018.2 hPa Calm   3.2 km/h 55 % 0 mm
18:04 27.6 °C 18 °C 1018.5 hPa Calm   3.2 km/h 56 % 0 mm
18:09 27.4 °C 18.1 °C 1018.5 hPa Calm   3.2 km/h 57 % 0 mm
18:14 27.1 °C 18.1 °C 1018.5 hPa Calm   1.6 km/h 58 % 0 mm
18:19 26.9 °C 18.2 °C 1018.5 hPa Calm   1.6 km/h 59 % 0 mm
18:24 26.7 °C 18.3 °C 1018.8 hPa Calm   1.6 km/h 60 % 0 mm
18:29 26.5 °C 18.6 °C 1018.8 hPa Calm   3.2 km/h 62 % 0 mm
18:34 26.5 °C 19.9 °C 1018.8 hPa East 1.6 km/h 3.2 km/h 67 % 0 mm
18:39 26.4 °C 20.3 °C 1018.8 hPa SE 6.4 km/h 6.4 km/h 69 % 0 mm
18:44 26.3 °C 20.4 °C 1018.8 hPa ESE 3.2 km/h 12.9 km/h 70 % 0 mm
18:49 26.2 °C 20.5 °C 1018.8 hPa SE 3.2 km/h 12.9 km/h 71 % 0 mm
18:54 26.1 °C 20.7 °C 1018.8 hPa SSE 3.2 km/h 12.9 km/h 72 % 0 mm
18:59 25.8 °C 20.6 °C 1018.8 hPa Calm   8 km/h 73 % 0 mm
19:04 25.7 °C 20.7 °C 1018.8 hPa ESE 3.2 km/h 4.8 km/h 74 % 0 mm
19:09 25.6 °C 20.8 °C 1018.8 hPa East 3.2 km/h 6.4 km/h 75 % 0 mm
19:14 25.4 °C 20.6 °C 1018.8 hPa SE 1.6 km/h 9.7 km/h 75 % 0 mm
19:20 25.3 °C 20.8 °C 1018.8 hPa ESE 4.8 km/h 9.7 km/h 76 % 0 mm
19:25 25.1 °C 20.8 °C 1018.8 hPa SE 3.2 km/h 9.7 km/h 77 % 0 mm
19:30 25 °C 20.9 °C 1019.2 hPa SE 1.6 km/h 9.7 km/h 78 % 0 mm
19:35 24.8 °C 20.7 °C 1019.2 hPa SE 4.8 km/h 9.7 km/h 78 % 0 mm
19:40 24.8 °C 20.9 °C 1019.2 hPa ESE 4.8 km/h 9.7 km/h 79 % 0 mm
19:45 24.7 °C 20.8 °C 1019.2 hPa South 3.2 km/h 9.7 km/h 79 % 0 mm
19:50 24.6 °C 20.7 °C 1019.5 hPa ESE 3.2 km/h 9.7 km/h 79 % 0 mm
19:55 24.6 °C 20.7 °C 1019.5 hPa SE 1.6 km/h 9.7 km/h 79 % 0 mm
20:00 24.4 °C 20.7 °C 1019.5 hPa ESE 3.2 km/h 9.7 km/h 80 % 0 mm
20:05 24.4 °C 20.7 °C 1019.5 hPa SE 3.2 km/h 9.7 km/h 80 % 0 mm
20:10 24.3 °C 20.6 °C 1019.5 hPa SE 1.6 km/h 9.7 km/h 80 % 0 mm
20:15 24.2 °C 20.5 °C 1019.5 hPa South 1.6 km/h 9.7 km/h 80 % 0 mm
20:20 24.1 °C 20.6 °C 1019.5 hPa SE 4.8 km/h 8 km/h 81 % 0 mm
20:25 24 °C 20.5 °C 1019.5 hPa SSE 4.8 km/h 8 km/h 81 % 0 mm
20:30 23.9 °C 20.4 °C 1019.9 hPa SE 4.8 km/h 8 km/h 81 % 0 mm
20:35 23.8 °C 20.5 °C 1019.9 hPa ESE 4.8 km/h 9.7 km/h 82 % 0 mm
20:40 23.7 °C 20.4 °C 1019.9 hPa SSE 1.6 km/h 9.7 km/h 82 % 0 mm
20:45 23.7 °C 20.4 °C 1019.9 hPa SE 1.6 km/h 9.7 km/h 82 % 0 mm
20:50 23.6 °C 20.5 °C 1019.9 hPa SE 4.8 km/h 8 km/h 83 % 0 mm
20:55 23.4 °C 20.3 °C 1019.9 hPa SSE 6.4 km/h 12.9 km/h 83 % 0 mm
21:00 23.4 °C 20.3 °C 1019.9 hPa SE 9.7 km/h 12.9 km/h 83 % 0 mm
21:05 23.3 °C 20.2 °C 1019.9 hPa ESE 6.4 km/h 12.9 km/h 83 % 0 mm
21:10 23.3 °C 20.4 °C 1019.9 hPa SSE 4.8 km/h 12.9 km/h 84 % 0 mm
21:15 23.2 °C 20.3 °C 1019.9 hPa SE 4.8 km/h 12.9 km/h 84 % 0 mm
21:20 23.1 °C 20.2 °C 1019.9 hPa SSE 1.6 km/h 9.7 km/h 84 % 0 mm
21:25 23.1 °C 20.2 °C 1019.9 hPa SE 4.8 km/h 9.7 km/h 84 % 0 mm
21:30 22.9 °C 20.1 °C 1019.9 hPa SSE 1.6 km/h 9.7 km/h 84 % 0 mm
21:35 22.8 °C 20.1 °C 1020.2 hPa SSW 1.6 km/h 9.7 km/h 85 % 0 mm
21:40 22.7 °C 20.2 °C 1020.2 hPa Calm   6.4 km/h 86 % 0 mm
21:45 22.6 °C 20.1 °C 1020.2 hPa Calm   6.4 km/h 86 % 0 mm
21:50 22.4 °C 19.9 °C 1020.5 hPa Calm   3.2 km/h 86 % 0 mm
21:55 22.3 °C 19.8 °C 1020.2 hPa Calm   3.2 km/h 86 % 0 mm
22:00 22.1 °C 19.8 °C 1020.2 hPa Calm   3.2 km/h 87 % 0 mm
22:05 21.9 °C 19.6 °C 1020.2 hPa Calm   1.6 km/h 87 % 0 mm
22:10 21.8 °C 19.5 °C 1020.2 hPa Calm   1.6 km/h 87 % 0 mm
22:15 21.6 °C 19.5 °C 1020.5 hPa Calm     88 % 0 mm
22:21 21.4 °C 19.3 °C 1020.5 hPa Calm     88 % 0 mm
22:26 21.2 °C 19.3 °C 1020.5 hPa Calm     89 % 0 mm
22:31 21.2 °C 19.3 °C 1020.5 hPa Calm     89 % 0 mm
22:36 21.1 °C 19.4 °C 1020.5 hPa Calm     90 % 0 mm
22:41 21.1 °C 19.4 °C 1020.5 hPa Calm     90 % 0 mm
22:46 21.1 °C 19.4 °C 1020.5 hPa Calm     90 % 0 mm
22:51 21.2 °C 19.7 °C 1020.5 hPa Calm   1.6 km/h 91 % 0 mm
22:56 21.2 °C 19.7 °C 1020.5 hPa Calm   1.6 km/h 91 % 0 mm
23:01 21.2 °C 19.7 °C 1020.5 hPa Calm   1.6 km/h 91 % 0 mm
23:06 21.2 °C 19.7 °C 1020.5 hPa Calm   1.6 km/h 91 % 0 mm
23:11 21.2 °C 19.7 °C 1020.5 hPa Calm     91 % 0 mm
23:16 21.2 °C 19.7 °C 1020.5 hPa Calm     91 % 0 mm
23:21 21.2 °C 19.7 °C 1020.5 hPa Calm     91 % 0 mm
23:26 21.2 °C 19.7 °C 1020.5 hPa Calm     91 % 0 mm
23:31 21.1 °C 19.6 °C 1020.5 hPa Calm     91 % 0 mm
23:36 21.1 °C 19.6 °C 1020.5 hPa Calm     91 % 0 mm
23:41 21.1 °C 19.6 °C 1020.5 hPa Calm     91 % 0 mm
23:46 21.1 °C 19.6 °C 1020.5 hPa Calm     91 % 0 mm
23:51 21.2 °C 19.7 °C 1020.5 hPa Calm   1.6 km/h 91 % 0 mm
23:56 21.2 °C 19.7 °C 1020.5 hPa Calm   1.6 km/h 91 % 0 mm
Spring, Texas: Villages of Bridgestone
Compliments of Weather Underground - 2.75 mb

Script developed by  Jim McMurry - jmcmurry@mwt.net Adapted for the template by  Wim van der Kuil - Leuven-Template.eu

You find our weather info also at:

UK Metoffice

WeatherCloud

Weather Underground

Mid-South Weather Network

AWEKAS

Citizen Weather Observer Program (CWOP)

HAMweather, WeatherForYou, PWS Weather

Equipment we use:

Weather-station
Davis Vantage Vue

Weather-program
Meteohub

Weather-server
Debian 7.9 x86 (Guest)

Provider
DreamHost

Davis Vantage Vue

Meteohub

Debian 7.9 x86 (Guest)

DreamHost